Akron Canton, OH

12:15 PM EDT on March 29, 2017 (GMT -0400)
Akron-Canton Regional

Weather History for KCAK - November, 2011

Change the Weather History Date:

Wednesday, November 2, 2011

  Actual Average Record
Temperature  
Mean Temperature 51 °F 46 °F  
Max Temperature 63 °F 55 °F 77 °F (2016)
Min Temperature 38 °F 38 °F 22 °F (1905)
Degree Days  
Heating Degree Days 14 19  
Month to date heating degree days 34 37  
Since 1 July heating degree days 512 592  
Cooling Degree Days 0 0  
Month to date cooling degree days 0 0  
Year to date cooling degree days 911 652  
Moisture  
Dew Point 34 °F    
Average Humidity 57    
Maximum Humidity 82    
Minimum Humidity 32    
Precipitation  
Precipitation 0.00 in 0.11 in 2.04 in (1999)
Month to date precipitation 0.00 0.22  
Year to date precipitation 48.77 33.70  
Snow  
Snow 0.00 in 0.10 in - ()
Month to date snowfall 0.0 0.1  
Since 1 July snowfall T 0.5  
Since 1 September snowfall T 0.5  
Snow Depth 0.00 in    
Sea Level Pressure  
Sea Level Pressure 30.24 in    
Wind  
Wind Speed 8 mph (South)    
Max Wind Speed 18 mph    
Max Gust Speed 24 mph    
Visibility 10 miles    
Events      
T = Trace of Precipitation, MM = Missing Value Source: NWS Daily Summary

Daily Weather History Graph

Daily Weather History Graph

Search for Another Location

Airport or City:

Trip Planner

Search our weather history database for the weather conditions in past years. The results will help you decide how hot, cold, wet, or windy it might be!

Date:

Astronomy

Nov. 02, 2011 Rise Set
Actual Time 7:57 AM EDT 6:20 PM EDT
Civil Twilight 7:28 AM EDT 6:49 PM EDT
Nautical Twilight 6:56 AM EDT 7:21 PM EDT
Astronomical Twilight 6:24 AM EDT 7:53 PM EDT
Moon 2:16 PM EDT (11/2) 12:02 AM EDT (11/2)
Length of Visible Light 11h 20m
Length of Day
10h 23m
Waxing Crescent, 50% of the Moon is Illuminated
Nov 2
Waxing Crescent
Nov 2
First Quarter
Nov 10
Full
Nov 18
Last Quarter
Nov 25
New

Hourly Weather History & Observations

Time (EDT) Temp. Windchill Dew Point Humidity Pressure Visibility Wind Dir Wind Speed Gust Speed Precip Events Conditions
12:51 AM 43.0 °F 39.5 °F 34.0 °F 71% 30.27 in 10.0 mi SSE 5.8 mph - N/A   Clear
1:51 AM 43.0 °F 40.3 °F 34.0 °F 71% 30.27 in 10.0 mi South 4.6 mph - N/A   Clear
2:51 AM 39.9 °F 35.1 °F 33.1 °F 77% 30.27 in 10.0 mi South 6.9 mph - N/A   Clear
3:51 AM 39.0 °F 35.7 °F 33.1 °F 79% 30.28 in 10.0 mi South 4.6 mph - N/A   Clear
4:51 AM 39.9 °F 35.8 °F 33.1 °F 77% 30.28 in 10.0 mi South 5.8 mph - N/A   Clear
5:51 AM 39.9 °F 37.8 °F 33.1 °F 77% 30.30 in 10.0 mi South 3.5 mph - N/A   Clear
6:51 AM 39.0 °F 34.8 °F 32.0 °F 76% 30.31 in 9.0 mi South 5.8 mph - N/A   Clear
7:51 AM 37.9 °F 34.4 °F 32.0 °F 79% 30.32 in 8.0 mi South 4.6 mph - N/A   Partly Cloudy
8:51 AM 41.0 °F 37.1 °F 34.0 °F 76% 30.32 in 7.0 mi South 5.8 mph - N/A   Partly Cloudy
9:51 AM 48.9 °F - 36.0 °F 61% 30.32 in 7.0 mi South 8.1 mph - N/A   Partly Cloudy
10:51 AM 53.1 °F - 36.0 °F 52% 30.31 in 8.0 mi SSW 9.2 mph - N/A   Scattered Clouds
11:51 AM 57.0 °F - 35.1 °F 44% 30.31 in 10.0 mi SW 9.2 mph - N/A   Scattered Clouds
12:51 PM 59.0 °F - 36.0 °F 42% 30.27 in 10.0 mi South 9.2 mph - N/A   Mostly Cloudy
1:51 PM 61.0 °F - 36.0 °F 39% 30.23 in 10.0 mi South 11.5 mph - N/A   Mostly Cloudy
2:51 PM 63.0 °F - 32.0 °F 31% 30.20 in 10.0 mi SW 13.8 mph 20.7 mph N/A   Mostly Cloudy
3:51 PM 62.1 °F - 34.0 °F 35% 30.19 in 10.0 mi SSW 16.1 mph - N/A   Mostly Cloudy
4:51 PM 62.1 °F - 32.0 °F 32% 30.18 in 10.0 mi SSW 12.7 mph - N/A   Mostly Cloudy
5:51 PM 55.0 °F - 35.1 °F 47% 30.17 in 10.0 mi South 5.8 mph - N/A   Mostly Cloudy
6:51 PM 53.1 °F - 34.0 °F 48% 30.17 in 10.0 mi South 6.9 mph - N/A   Scattered Clouds
7:51 PM 54.0 °F - 33.1 °F 45% 30.16 in 10.0 mi SSE 8.1 mph - N/A   Mostly Cloudy
8:51 PM 54.0 °F - 33.1 °F 45% 30.14 in 10.0 mi South 11.5 mph - N/A   Scattered Clouds
9:51 PM 55.0 °F - 33.1 °F 43% 30.12 in 10.0 mi South 12.7 mph - N/A   Mostly Cloudy
10:51 PM 53.1 °F - 33.1 °F 47% 30.13 in 10.0 mi SSW 8.1 mph - N/A   Scattered Clouds
11:51 PM 51.1 °F - 34.0 °F 52% 30.12 in 10.0 mi South 9.2 mph - N/A   Scattered Clouds